SCP
1 1 1 1 1 1 1 1 1 1 1 1 2 2 2 2 3 3 3 3 4 6 7 7 7 7 6 6 5 4 3 3 4 4 4 4 5 4 3 3 3 3 2 2
0 0 0 0 1 1 1 1 1 1 1 1 2 2 2 2 2 3 3 4 5 6 7 7 7 7 7 6 5 4 4 4 5 5 5 5 5 4 3 3 3 2 2 2
0 0 0 0 1 1 1 1 1 1 1 2 2 2 2 2 2 3 4 5 6 6 7 7 7 7 7 6 5 5 5 5 6 6 6 5 4 4 3 3 3 2 2 2
0 0 0 1 1 1 1 1 1 1 1 2 2 3 3 3 3 4 5 6 6 6 7 7 7 7 7 7 6 6 6 7 7 6 6 5 4 3 3 3 3 3 3 3
0 0 0 1 1 1 1 1 1 1 2 2 2 3 3 3 4 6 7 7 6 6 6 6 7 8 8 8 8 8 7 7 6 6 5 4 3 3 3 3 3 3 4 4
0 0 0 1 1 1 1 1 1 1 2 2 2 2 3 3 5 7 8 7 5 5 5 6 7 8 8 8 8 8 7 6 5 4 4 4 3 4 4 4 4 4 5 6
0 0 0 1 1 1 1 1 1 1 2 2 3 3 3 4 5 7 7 6 5 5 5 7 8 9 8 8 7 7 6 6 5 4 3 4 5 5 6 6 5 5 6 7
0 0 1 1 1 1 1 1 1 2 2 2 3 3 3 3 5 6 7 6 5 5 7 8 9 10 10 8 7 6 6 5 5 4 3 4 5 6 7 7 7 7 8 9
1 1 1 1 2 2 2 2 2 2 2 2 2 2 2 3 4 6 7 7 7 6 7 8 10 12 12 9 7 6 5 5 4 4 4 4 5 6 7 8 8 8 9 10
1 1 1 2 2 2 2 2 2 2 2 2 2 2 3 3 4 5 6 7 7 7 7 8 9 10 9 8 6 6 5 4 4 4 4 4 5 5 6 7 7 8 9 9
2 2 3 3 3 3 3 3 2 2 2 1 2 2 3 4 5 5 5 6 6 6 6 7 7 7 7 6 6 6 5 4 3 3 4 4 4 4 4 5 5 5 6 7
3 4 4 4 4 3 3 3 2 2 2 2 2 3 4 6 6 6 6 6 6 6 6 7 8 8 7 6 6 6 5 4 4 4 4 4 3 3 3 3 2 2 2 3
5 6 7 6 5 3 3 3 3 2 2 2 3 5 6 7 7 7 7 7 6 6 7 9 11 11 9 7 6 5 5 4 4 4 4 4 3 3 2 2 1 1 0 0
6 7 8 7 6 4 3 3 3 3 3 3 4 6 7 8 7 7 7 6 6 7 9 13 15 13 9 7 5 4 4 3 3 3 3 3 3 3 2 2 1 1 0 0
6 6 7 7 6 5 4 4 3 3 3 3 4 5 6 6 6 6 5 5 6 8 12 14 14 12 8 5 4 3 3 3 3 3 3 3 3 3 2 2 2 2 1 1
4 4 5 6 6 6 5 4 4 4 3 3 3 3 4 4 4 4 4 5 7 9 10 11 10 8 6 4 3 3 3 2 2 2 2 2 2 2 2 2 2 2 2 1
2 2 3 4 5 5 5 4 3 3 3 3 2 2 2 2 3 4 5 6 8 8 8 7 6 5 4 3 3 2 2 2 1 2 2 2 2 2 2 2 2 2 2 2
1 1 1 2 3 3 3 3 2 2 2 2 1 1 1 2 3 4 5 6 6 7 6 5 4 4 3 3 2 2 2 2 2 2 2 2 2 2 2 2 2 2 2 2
1 1 1 1 1 2 2 2 2 1 1 1 1 1 1 1 2 3 3 4 4 4 4 4 3 3 3 3 2 2 2 2 2 2 1 1 1 2 2 1 1 2 2 2
1 1 1 1 1 1 1 1 1 1 1 1 1 1 1 1 1 2 3 3 3 2 2 2 2 2 3 3 2 2 2 2 2 1 1 1 1 2 2 1 1 1 2 1
0 1 1 1 1 1 1 1 1 1 1 1 1 1 1 1 2 3 3 3 2 1 1 1 1 1 2 2 2 2 2 1 1 1 1 1 1 1 2 2 2 2 2 1
0 0 1 1 1 1 1 1 1 1 1 1 1 1 1 2 3 3 3 2 1 1 0 0 0 1 1 1 1 2 1 1 1 1 1 1 1 2 2 3 3 2 1 1
1 1 1 1 1 1 1 1 1 1 1 1 1 1 2 3 4 3 2 1 1 0 0 0 0 0 0 1 1 1 1 1 1 1 1 1 1 2 3 4 3 2 1 1
1 1 1 1 1 1 1 1 1 1 1 1 1 2 3 4 3 2 1 1 0 0 0 0 0 0 0 1 1 1 1 1 1 1 2 1 1 2 4 3 3 2 2 2
1 1 1 1 1 1 1 1 1 1 1 1 2 3 3 3 2 1 1 1 0 0 0 0 0 0 0 1 1 1 1 1 1 1 2 1 2 2 3 2 2 2 2 2
1 1 1 1 1 1 1 1 1 1 1 1 1 1 1 1 1 1 1 1 0 0 0 0 0 0 1 1 1 1 1 1 1 1 1 1 2 2 1 1 1 1 2 2
1 1 1 1 1 1 1 1 1 1 1 1 0 0 0 0 1 1 1 1 0 0 1 1 0 0 1 1 1 2 2 2 1 1 1 2 2 1 1 0 0 1 1 1
Wind_Speed
6 3 8 12 14 15 15 12 11 8 7 5 4 4 5 6 6 7 7 7 6 6 6 5 5 5 5 4 4 4 4 3 3 3 2 2 2 2 2 2 2 2 2 2
9 7 8 10 11 13 13 11 10 8 6 3 3 4 5 6 6 7 7 6 6 6 6 5 5 4 4 4 3 4 4 3 2 2 2 2 2 2 2 1 1 2 2 2
10 9 10 12 10 10 10 9 10 10 5 5 5 5 5 5 6 7 7 6 6 6 5 4 4 4 4 4 4 4 3 3 2 3 2 2 2 2 2 2 2 2 2 2
8 9 13 4 4 7 7 6 6 4 4 5 4 4 3 3 4 6 6 6 6 5 5 5 4 4 4 4 4 4 3 3 2 2 3 2 2 2 2 1 2 2 2 2
8 10 9 6 5 6 7 6 4 4 4 4 4 6 5 3 3 4 5 6 5 5 6 5 4 4 4 4 4 3 3 3 2 2 3 2 2 2 2 2 2 2 2 2
9 11 10 6 7 4 6 7 5 4 5 5 7 7 5 5 4 5 6 6 6 6 7 6 4 4 4 4 4 3 3 3 2 2 2 2 2 1 2 2 2 2 3 3
10 10 6 3 5 7 9 3 5 4 4 5 3 2 5 6 6 6 7 7 7 7 6 6 4 4 4 4 3 3 3 3 3 3 2 2 2 1 2 2 2 2 3 4
9 10 6 5 6 5 2 4 3 3 3 2 2 3 5 6 6 6 6 6 7 6 6 5 4 4 4 3 3 3 3 3 3 3 2 2 2 2 2 2 3 3 3 4
3 1 4 3 2 3 2 2 2 1 2 3 4 4 5 6 6 6 5 5 5 6 6 5 4 4 4 4 3 3 4 4 3 3 3 2 2 2 2 2 2 2 3 3
3 4 3 3 3 2 1 1 2 1 2 3 4 5 5 5 5 5 5 4 4 5 5 4 4 4 5 4 3 4 4 4 3 3 4 3 2 2 2 1 1 1 2 2
5 4 4 4 3 2 2 1 2 2 2 2 4 4 4 4 4 4 4 4 3 4 4 4 4 4 4 4 3 4 4 4 3 3 4 4 4 5 3 5 4 1 1 2
3 3 3 3 2 1 2 2 2 2 3 3 3 4 4 4 4 4 4 4 4 3 4 4 4 4 4 4 4 4 4 3 3 3 3 3 5 5 11 8 9 9 7 4
1 2 1 1 2 2 2 2 2 2 2 3 3 3 3 3 3 4 4 5 4 3 3 3 3 3 3 4 4 4 4 3 2 2 3 3 3 4 5 6 9 9 8 7
1 2 3 3 2 2 2 2 2 2 2 3 3 3 3 3 3 3 4 4 4 4 4 3 3 3 3 3 4 4 4 3 3 2 2 2 3 3 3 4 4 4 6 6
4 4 4 3 3 3 3 3 3 3 3 3 3 3 4 4 3 3 3 4 4 4 4 4 4 3 3 4 4 4 3 3 2 2 2 2 3 3 3 4 4 4 4 4
4 4 5 5 5 5 5 5 5 4 4 4 4 4 3 3 3 3 3 4 5 5 4 4 4 4 4 4 5 4 3 3 2 3 3 3 3 3 3 3 3 3 4 4
5 6 6 6 6 6 6 6 5 5 5 4 4 4 4 4 4 4 4 4 4 4 4 4 4 4 4 4 5 4 4 4 5 4 3 3 3 3 3 3 3 3 3 3
6 6 7 7 7 6 6 6 6 6 6 5 5 5 6 6 5 4 4 4 4 4 4 4 4 4 5 4 3 3 4 4 4 3 3 3 3 3 3 4 4 4 4 4
4 5 6 6 6 6 6 7 6 6 5 5 6 6 6 6 5 5 5 5 6 5 5 4 4 5 5 4 4 4 4 4 4 4 3 4 4 4 3 3 3 4 4 4
4 5 5 5 6 6 6 6 6 5 5 6 6 6 6 6 6 6 6 6 5 3 4 5 6 6 5 5 5 4 4 5 4 4 4 4 4 4 3 4 4 4 4 3
5 5 5 5 5 6 6 6 6 6 6 6 7 7 7 6 6 6 6 5 5 5 5 6 6 5 5 4 6 5 5 5 5 5 4 4 4 4 4 3 3 3 3 3
4 4 5 5 4 4 4 5 6 6 6 6 6 7 7 7 6 6 6 4 4 5 5 5 5 4 4 5 5 5 5 5 5 4 4 4 4 4 4 4 3 3 3 3
3 4 4 4 4 4 4 4 6 6 6 6 6 7 6 5 5 5 4 4 4 5 5 4 4 5 6 6 5 5 6 6 5 5 4 4 4 4 4 4 3 3 3 3
3 3 3 3 3 3 4 4 4 4 5 5 5 6 6 5 4 4 3 4 5 5 4 4 6 7 7 6 5 6 6 6 5 5 5 4 4 3 3 4 4 4 4 4
3 3 3 3 3 3 3 4 4 4 5 4 5 5 5 4 4 3 4 5 6 6 5 6 7 7 6 5 5 5 5 5 4 4 4 4 4 4 4 3 3 3 3 3
2 2 2 3 2 2 2 3 3 3 3 3 3 3 3 3 4 4 4 6 7 6 5 5 6 6 5 4 5 4 4 5 5 4 4 3 4 4 4 4 5 3 3 3
2 2 2 2 2 2 2 2 2 2 2 3 3 3 4 4 4 4 5 5 5 5 5 5 5 5 4 4 4 4 4 4 4 3 3 3 4 4 4 5 3 3 3 3
Wind_Direction
243 227 203 201 201 206 219 233 239 222 215 193 170 163 157 153 148 142 141 140 139 138 132 130 129 131 130 129 131 140 146 153 157 163 167 174 189 186 176 185 196 184 177 185
210 206 210 210 206 210 217 226 234 226 212 159 140 151 152 156 154 150 147 143 138 133 130 128 126 125 125 125 130 132 136 149 153 152 146 157 168 153 140 137 138 141 155 165
206 196 208 212 208 211 213 219 225 221 200 158 164 159 157 160 164 157 151 145 140 134 128 126 123 123 130 132 136 138 143 147 143 146 143 143 142 132 137 147 145 145 151 145
203 191 217 188 184 213 213 214 231 222 173 175 167 151 146 157 163 153 144 142 134 128 122 118 117 118 118 125 132 135 136 130 129 138 135 132 131 127 135 140 143 145 142 140
214 210 208 165 173 199 206 203 205 198 183 169 162 158 149 118 135 140 136 128 120 117 113 104 102 105 113 118 119 123 121 120 118 126 133 135 132 132 132 135 142 144 136 136
217 225 220 186 157 192 224 204 173 187 183 180 192 205 146 132 135 126 124 122 119 114 107 102 97 100 106 101 106 109 114 113 108 121 127 124 123 128 132 138 137 135 122 118
219 225 218 125 145 188 218 173 147 175 178 189 207 355 99 131 132 127 124 124 121 115 108 102 102 105 97 91 91 97 100 95 96 102 113 114 120 127 130 129 120 121 114 103
219 225 201 126 177 205 52 71 127 159 169 164 146 124 129 138 135 131 129 127 124 118 111 109 111 113 107 91 85 93 95 96 95 97 102 112 121 119 123 135 135 132 126 115
235 222 77 115 109 74 64 103 109 131 140 151 148 141 141 140 136 133 128 125 126 123 117 110 110 114 113 101 98 100 98 95 96 98 93 89 106 122 134 145 151 142 142 133
207 162 145 140 128 114 102 96 88 97 143 159 152 145 144 145 142 137 133 132 133 130 124 115 109 109 110 107 106 108 104 100 103 107 104 93 81 85 92 93 120 127 132 134
211 183 178 169 154 127 114 113 114 107 117 134 146 150 148 149 148 148 141 138 143 142 134 127 120 115 117 115 119 118 113 111 113 111 104 92 73 44 43 54 26 11 110 126
219 185 223 179 168 178 167 158 139 128 123 129 143 148 149 148 148 150 150 148 156 150 141 138 132 124 126 135 142 138 130 126 124 122 118 120 115 92 57 57 53 43 36 42
289 283 290 214 241 237 213 196 192 181 169 160 154 156 156 151 152 153 157 161 166 163 159 155 144 135 139 145 147 141 134 134 136 133 133 135 133 130 117 88 72 60 51 56
228 230 223 222 231 222 206 195 201 192 183 174 174 174 169 167 171 172 172 173 169 164 165 165 156 148 150 153 151 147 145 135 150 146 144 145 142 138 134 130 122 100 78 74
226 241 232 225 221 208 201 198 197 193 187 186 187 188 185 182 183 188 184 175 168 169 171 172 165 162 162 163 161 164 165 158 153 145 151 144 146 146 137 131 125 125 122 110
240 231 219 217 217 216 215 211 211 210 206 202 200 198 197 193 191 198 194 184 184 183 177 181 182 179 176 173 171 170 157 141 164 164 159 154 157 153 145 138 136 138 136 135
235 229 225 225 225 225 227 227 224 220 218 214 214 211 205 200 200 202 201 194 191 190 190 193 188 179 183 184 182 173 162 155 170 177 167 161 163 159 151 152 149 140 133 121
246 249 245 241 240 235 232 231 228 225 223 220 220 221 216 211 212 209 205 201 195 197 201 196 184 182 186 185 186 182 171 171 178 171 168 167 168 167 165 162 154 145 138 139
253 252 249 243 238 234 231 230 229 225 220 218 220 224 224 222 219 214 208 205 204 204 198 184 182 194 188 181 190 187 180 178 179 175 174 168 179 174 171 164 160 155 154 157
262 257 246 240 233 229 229 227 226 227 224 218 215 219 223 223 221 218 211 211 212 207 186 183 195 193 188 183 202 196 185 183 183 180 182 185 181 179 179 178 174 167 164 163
260 253 242 238 233 231 228 224 225 227 224 219 217 219 220 220 221 215 212 210 195 189 191 188 202 195 190 182 198 199 191 190 188 190 192 192 192 191 188 185 178 167 166 165
253 249 246 238 231 229 227 224 222 221 221 220 220 223 220 215 211 211 214 216 192 174 199 201 201 176 173 190 200 197 196 197 196 198 200 196 192 189 188 182 172 171 172 163
258 250 246 236 228 223 222 223 222 219 218 219 219 219 218 215 209 204 204 195 189 180 204 202 163 155 173 201 203 197 198 199 199 199 198 193 190 192 185 182 176 169 161 154
258 250 241 230 219 217 222 222 219 214 210 211 212 212 211 206 200 201 190 167 174 185 196 157 160 179 202 205 200 199 197 195 192 191 191 190 190 187 178 175 168 162 160 160
251 247 233 220 219 218 211 199 193 196 205 201 197 198 202 203 196 181 176 172 170 179 175 162 172 190 206 201 198 196 192 187 186 187 188 189 184 173 165 159 156 159 159 156
244 242 232 222 217 216 203 194 193 190 186 178 177 180 177 173 175 173 170 171 173 176 179 171 173 190 198 188 185 183 182 174 180 189 181 174 171 159 153 152 153 157 155 150
240 230 217 201 194 197 189 192 187 178 172 168 164 163 166 170 170 169 169 170 170 170 169 168 172 178 175 172 170 172 175 168 168 169 163 156 152 152 155 156 154 152 153 150